Date,TemperatureHighF,TemperatureAvgF,TemperatureLowF,DewpointHighF,DewpointAvgF,DewpointLowF,HumidityHigh,HumidityAvg,HumidityLow,PressureMaxIn,PressureMinIn,WindSpeedMaxMPH,WindSpeedAvgMPH,GustSpeedMaxMPH,PrecipitationSumIn
2013-1-1,27.3,23.7,21.3,18.5,16.4,14.6,79,73,66,30.48,30.32,6,0,8,0.00
2013-1-2,26.7,22.4,19.0,17.6,15.0,12.5,78,73,66,30.51,30.46,4,0,5,0.00
2013-1-3,24.9,17.1,10.2,16.1,10.7,4.6,80,76,68,30.46,30.32,8,1,8,0.00
2013-1-4,24.6,20.5,15.4,17.2,14.5,10.0,81,77,73,30.34,30.29,6,0,6,0.00
2013-1-5,31.2,23.9,12.3,23.9,18.3,7.3,83,79,73,30.38,30.16,7,1,8,0.00
2013-1-6,35.4,28.8,24.0,25.9,21.7,19.3,83,75,62,30.16,30.00,18,2,21,0.00
2013-1-7,34.8,31.9,29.3,30.4,26.5,22.6,85,81,74,30.04,29.80,15,1,15,0.20
2013-1-8,38.3,32.6,27.3,30.4,24.8,18.5,84,73,54,30.09,29.83,13,2,13,0.09
2013-1-9,42.4,37.4,30.7,33.0,30.3,26.6,88,76,58,29.94,29.70,16,3,23,0.14
2013-1-10,34.3,28.4,22.4,27.7,20.6,8.9,83,73,55,29.93,29.75,21,3,22,0.00
2013-1-11,24.4,16.5,0.1,9.5,4.1,-6.4,77,58,49,30.17,29.93,15,2,15,0.00
2013-1-12,18.3,11.0,1.9,10.7,4.3,-4.0,79,74,69,30.23,30.13,7,1,7,0.00
2013-1-13,18.3,12.4,1.9,9.8,5.9,-4.0,79,75,68,30.31,30.23,5,0,6,0.00
2013-1-14,22.8,18.2,14.1,14.3,11.1,8.2,77,74,66,30.36,30.22,8,1,9,0.00
2013-1-15,27.6,20.8,13.8,19.0,14.2,8.2,82,76,68,30.47,30.35,8,1,8,0.00
2013-1-16,24.6,16.4,9.5,18.7,11.3,4.5,83,80,76,30.46,30.42,10,2,10,0.00
2013-1-17,26.7,16.2,8.9,21.0,11.5,4.3,84,82,77,30.47,30.26,8,2,9,0.00
2013-1-18,31.8,21.9,13.2,24.6,16.3,9.0,85,79,72,30.27,30.15,10,3,11,0.00
2013-1-19,30.9,19.4,11.6,21.9,13.1,6.6,83,77,66,30.36,30.26,10,2,11,0.00
2013-1-20,32.9,20.5,10.0,21.9,14.0,5.5,84,76,63,30.42,30.33,10,1,10,0.00
2013-1-21,31.8,21.6,12.2,22.7,15.5,7.4,82,77,67,30.33,30.19,9,2,9,0.00
2013-1-22,28.2,15.8,6.6,19.7,10.1,2.0,82,78,69,30.27,30.16,7,1,7,0.00
2013-1-23,28.2,21.5,14.3,20.8,15.7,9.5,83,78,71,30.19,29.97,8,1,8,0.00
2013-1-24,38.6,31.5,23.5,30.7,23.7,17.6,88,73,57,30.20,29.96,14,3,14,0.04
2013-1-25,40.8,33.1,25.5,31.9,27.0,20.2,85,78,69,30.18,29.94,11,1,11,0.06
2013-1-26,40.2,33.5,24.9,34.6,27.8,18.9,87,80,64,29.96,29.87,9,1,12,0.10
2013-1-27,36.6,27.0,19.0,25.8,20.3,14.3,83,76,60,29.95,29.89,9,2,15,0.00
2013-1-28,35.4,24.7,17.2,24.9,18.1,12.0,84,76,59,29.92,29.79,14,2,14,0.00
2013-1-29,30.5,22.4,17.2,21.8,16.4,12.2,84,78,63,30.13,29.84,5,0,7,0.00
2013-1-30,39.7,31.3,22.8,29.6,23.9,17.9,83,74,65,30.14,30.02,20,2,20,0.08
2013-1-31,42.6,37.5,34.7,32.2,28.9,26.9,78,71,65,30.21,30.12,11,2,14,0.00
2013-2-1,40.6,34.8,28.0,29.4,27.0,21.4,86,74,59,30.37,30.12,13,3,13,0.00
2013-2-2,39.0,28.2,19.9,29.8,22.1,15.7,85,78,68,30.44,30.25,10,3,10,0.00
2013-2-3,40.6,28.8,18.3,29.3,22.0,14.1,86,76,58,30.25,30.06,11,2,13,0.00
2013-2-4,41.7,37.2,30.0,29.0,27.0,23.3,76,67,58,30.07,30.00,15,2,20,0.00
2013-2-5,42.9,34.6,29.1,32.4,26.7,23.2,81,73,56,30.03,29.81,19,2,19,0.00
2013-2-6,39.5,34.0,24.6,30.0,25.0,19.0,79,70,57,30.11,29.92,17,3,17,0.00
2013-2-7,38.3,28.7,21.7,29.2,22.9,16.7,85,79,69,30.09,29.97,7,1,7,0.00
2013-2-8,39.3,28.6,19.7,29.5,22.2,15.3,86,77,65,30.08,30.01,9,2,9,0.00
2013-2-9,31.2,24.7,16.8,25.0,19.1,12.2,84,79,72,30.15,29.99,8,2,9,0.00
2013-2-10,33.0,24.6,18.1,26.1,19.5,13.7,85,81,73,30.24,30.15,8,2,14,0.00
2013-2-11,34.3,26.3,15.0,25.3,19.8,10.8,85,77,65,30.19,30.13,8,1,8,0.00
2013-2-12,38.8,34.5,30.5,27.6,25.2,23.3,77,69,60,30.21,30.09,15,3,17,0.00
2013-2-13,43.5,37.2,26.4,29.6,26.0,18.8,80,64,48,30.25,30.02,18,3,18,0.00
2013-2-14,40.8,29.7,21.3,24.5,19.6,15.6,80,67,45,30.46,30.25,14,2,16,0.00
2013-2-15,41.0,29.5,19.0,28.4,21.7,14.0,83,73,60,30.49,30.31,11,3,11,0.00
2013-2-16,37.2,29.6,19.9,30.7,24.1,15.8,86,80,72,30.31,29.87,12,2,15,0.02
2013-2-17,38.4,32.5,27.1,30.8,25.5,21.7,81,75,68,30.09,29.88,22,3,22,0.02
2013-2-18,37.2,26.2,14.7,27.4,19.2,10.2,84,75,61,30.12,29.88,9,3,9,0.00
2013-2-19,38.4,28.7,21.5,25.1,21.2,16.6,82,74,55,29.88,29.75,8,1,8,0.00
2013-2-20,39.0,30.1,21.0,26.7,21.2,14.2,84,71,49,29.97,29.85,13,2,13,0.00
2013-2-21,35.7,26.3,15.6,24.0,18.4,10.2,81,72,56,30.02,29.94,12,3,14,0.00
2013-2-22,38.3,31.6,25.3,27.3,24.6,20.0,83,75,61,29.97,29.66,13,2,16,0.00
2013-2-23,38.6,31.7,24.6,27.2,20.4,15.4,78,63,52,30.16,29.65,17,4,23,0.00
2013-2-24,36.3,27.5,15.2,23.0,17.9,10.4,83,68,51,30.25,30.14,15,4,15,0.00
2013-2-25,39.7,32.3,27.6,26.5,22.5,20.1,74,67,54,30.14,29.88,16,2,16,0.00
2013-2-26,38.1,31.1,24.4,24.3,20.7,17.5,81,66,52,30.28,30.02,14,3,18,0.00
2013-2-27,40.1,29.4,23.1,24.8,19.7,15.4,76,67,52,30.28,30.22,18,2,18,0.00
2013-2-28,40.1,33.0,26.7,29.7,25.3,20.3,81,73,65,30.34,30.24,11,2,11,0.00
2013-3-1,49.1,39.5,32.3,38.3,32.8,26.6,86,77,63,30.35,30.30,14,2,16,0.00
2013-3-2,51.0,40.9,30.3,39.3,32.3,26.7,87,72,52,30.33,29.94,15,2,15,0.00
2013-3-3,42.2,33.0,19.5,34.0,22.9,13.7,85,67,49,30.19,29.81,22,5,37,0.04
2013-3-4,33.8,21.7,8.9,20.7,12.6,4.0,82,69,49,30.34,30.20,12,2,15,0.00
2013-3-5,36.5,24.2,11.1,22.3,14.7,5.7,82,68,50,30.21,29.98,11,1,11,0.00
2013-3-6,38.8,29.9,23.5,29.7,23.8,18.2,84,78,68,29.98,29.77,9,0,9,0.07
2013-3-7,42.9,33.7,24.2,31.2,25.5,18.3,86,73,54,30.10,29.85,15,2,16,0.02
2013-3-8,45.6,30.5,16.7,29.4,20.9,12.0,85,69,45,30.09,29.99,12,2,13,0.00
2013-3-9,45.6,33.3,22.6,26.8,22.2,16.5,81,65,44,30.38,30.08,14,2,14,0.00
2013-3-10,47.4,33.5,20.8,30.5,23.3,16.3,85,68,44,30.39,30.19,13,3,13,0.00
2013-3-11,44.9,36.0,27.1,25.7,20.8,16.0,75,55,37,30.25,30.16,13,3,13,0.00
2013-3-12,38.1,31.9,26.6,30.6,24.8,17.0,86,75,66,30.24,30.09,6,0,7,0.14
2013-3-13,53.7,42.4,34.1,42.4,35.1,28.8,88,77,55,30.22,30.13,8,2,9,0.02
2013-3-14,53.4,40.9,31.2,40.4,33.0,26.9,86,74,52,30.20,30.03,8,2,10,0.00
2013-3-15,52.8,45.6,36.5,34.4,31.0,26.6,76,57,45,30.15,30.01,20,5,23,0.00
2013-3-16,47.8,37.9,29.1,36.8,30.5,24.5,87,75,57,30.09,29.72,15,3,16,0.00
2013-3-17,38.8,32.4,23.5,29.4,22.2,16.1,83,66,48,29.98,29.65,20,4,23,0.02
2013-3-18,37.9,29.8,21.3,23.7,19.2,14.0,81,65,51,30.08,29.94,16,3,17,0.00
2013-3-19,41.3,28.8,16.3,22.1,16.8,10.7,81,62,41,30.28,30.02,16,4,18,0.00
2013-3-20,44.9,34.9,26.0,36.1,27.2,15.4,82,73,64,30.02,29.61,14,2,14,0.12
2013-3-21,40.2,33.1,27.6,28.4,20.2,16.0,82,60,41,30.00,29.73,17,5,22,0.00
2013-3-22,35.4,27.0,18.8,22.9,18.2,12.4,80,70,55,30.22,29.99,13,2,17,0.00
2013-3-23,34.3,23.5,12.2,23.3,15.6,6.2,80,72,59,30.32,30.22,8,1,8,0.02
2013-3-24,37.2,25.0,12.3,21.4,15.7,7.3,82,69,48,30.37,30.24,16,3,16,0.02
2013-3-25,40.6,25.8,12.0,23.3,16.0,6.9,83,68,48,30.24,30.07,15,3,15,0.00
2013-3-26,48.3,32.3,17.7,29.1,21.4,12.8,84,66,45,30.08,30.00,15,4,15,0.00
2013-3-27,53.0,37.2,21.9,35.6,27.2,17.2,85,68,47,30.08,30.02,14,3,14,0.00
2013-3-28,54.5,41.4,31.1,39.6,33.2,27.0,86,74,53,30.14,30.07,15,3,18,0.00
2013-3-29,53.7,41.1,33.0,41.0,34.3,29.0,87,77,51,30.24,30.14,15,3,15,0.09
2013-3-30,59.3,41.3,26.4,40.4,30.1,23.0,88,68,35,30.30,30.17,13,3,13,0.00
2013-3-31,58.8,42.2,26.9,37.4,30.1,22.1,85,65,42,30.18,30.06,12,4,13,0.00
2013-4-1,61.5,42.2,26.2,36.9,29.5,21.5,86,64,36,30.12,30.02,14,3,14,0.00
2013-4-2,63.6,44.3,26.6,41.7,31.9,22.3,85,64,40,30.12,30.03,17,4,18,0.00
2013-4-3,62.7,47.2,35.9,42.7,34.4,28.2,83,63,41,30.15,30.07,15,3,17,0.00
2013-4-4,61.5,43.6,27.6,44.0,34.4,23.6,87,72,44,30.11,29.83,9,1,12,0.07
2013-4-5,52.7,46.8,41.9,42.4,38.1,33.8,86,72,59,29.95,29.83,20,4,20,0.11
2013-4-6,52.3,43.5,32.3,40.7,33.7,25.6,84,69,48,29.94,29.88,16,4,25,0.02
2013-4-7,46.0,35.9,27.1,36.1,29.5,22.3,85,78,65,29.91,29.72,14,3,16,0.22
2013-4-8,39.7,30.3,23.9,25.2,19.6,13.2,84,65,50,30.28,29.90,17,5,17,0.00
2013-4-9,43.8,29.8,16.3,28.0,19.2,9.9,80,65,51,30.39,30.25,12,3,12,0.00
2013-4-10,47.4,38.8,29.8,39.9,31.6,23.7,83,75,63,30.25,29.86,9,1,12,0.08
2013-4-11,47.6,38.7,28.0,33.9,29.5,24.3,88,71,50,30.11,29.96,16,4,19,0.00
2013-4-12,49.8,37.6,24.4,33.3,27.9,20.3,87,70,46,30.13,29.69,12,2,12,0.07
2013-4-13,41.9,36.7,31.8,32.8,26.8,21.5,84,68,47,29.82,29.58,16,4,23,0.14
2013-4-14,41.3,33.4,26.9,26.4,21.6,11.5,83,63,44,30.02,29.82,20,4,23,0.04
2013-4-15,37.0,30.0,24.0,17.2,12.5,9.5,55,48,41,30.21,30.02,16,8,57,0.00
2013-4-16,37.7,30.2,20.8,16.9,12.4,7.4,68,48,36,30.38,30.20,88,7,88,0.00
2013-4-17,45.6,30.4,14.5,21.3,14.0,5.8,71,52,36,30.39,30.25,13,3,21,0.00
2013-4-18,54.3,40.1,24.6,30.4,23.1,13.8,70,52,38,30.28,30.20,20,4,22,0.00
2013-4-19,52.1,44.6,38.8,39.8,33.3,26.2,76,64,57,30.20,29.94,14,3,14,0.00
2013-4-20,53.7,44.6,36.1,38.0,34.5,30.0,81,69,48,30.07,29.96,20,5,23,0.30
2013-4-21,36.1,29.7,24.0,31.3,22.0,12.2,84,73,60,30.33,30.06,16,5,17,0.09
2013-4-22,40.6,27.9,13.6,23.7,16.1,7.3,77,62,43,30.48,30.33,17,3,17,0.02
2013-4-23,45.5,32.6,19.2,31.2,23.2,13.3,81,69,54,30.38,30.23,14,3,14,0.00
2013-4-24,58.1,40.7,22.8,34.6,26.7,18.1,85,61,34,30.30,30.03,27,4,27,0.00
2013-4-25,63.1,50.3,32.7,35.9,30.8,23.8,71,49,34,30.10,29.94,21,3,21,0.00
2013-4-26,68.7,51.5,33.4,43.1,34.0,26.2,78,54,30,30.17,30.10,19,4,25,0.00
2013-4-27,64.2,54.4,41.0,36.3,33.4,30.3,68,46,29,30.13,30.02,21,7,23,0.00
2013-4-28,56.8,50.0,41.5,37.9,33.8,30.3,69,54,41,30.07,29.87,22,5,25,0.00
2013-4-29,48.9,40.7,28.0,34.8,29.7,21.1,76,65,49,29.93,29.68,26,6,26,0.04
2013-4-30,39.0,31.0,21.0,30.2,23.2,15.8,82,73,59,30.32,29.93,14,3,14,0.02
2013-5-1,51.9,35.6,19.4,32.8,23.8,14.4,84,65,36,30.58,30.32,16,4,16,0.00
2013-5-2,61.3,42.5,23.7,35.2,27.2,17.0,77,57,33,30.60,30.32,15,4,16,0.00
2013-5-3,58.6,49.1,37.2,43.7,36.6,29.0,81,63,48,30.35,30.30,16,4,16,0.04
2013-5-4,61.8,45.9,28.2,38.9,31.3,23.3,86,60,36,30.38,30.24,15,5,15,0.00
2013-5-5,66.3,48.8,30.0,39.5,32.2,24.2,81,56,30,30.26,30.04,14,4,14,0.00
2013-5-6,71.2,51.3,30.5,41.7,34.1,24.5,80,56,31,30.09,29.91,14,4,14,0.00
2013-5-7,70.5,54.8,33.6,41.9,35.8,27.7,80,52,34,30.12,29.94,20,6,24,0.00
2013-5-8,73.2,54.7,35.2,48.2,39.1,28.5,78,58,37,30.18,30.08,14,4,14,0.00
2013-5-9,75.7,57.8,41.0,49.2,42.6,35.7,86,61,28,30.21,30.11,12,4,14,0.00
2013-5-10,71.6,56.6,38.4,42.3,37.7,31.2,77,52,34,30.37,30.16,16,5,17,0.00
2013-5-11,79.3,58.4,40.2,52.3,42.2,33.2,78,58,33,30.30,30.12,17,3,17,0.00
2013-5-12,79.8,62.6,43.8,53.8,46.5,38.1,83,58,37,30.16,30.02,14,3,18,0.00
2013-5-13,73.0,60.7,47.8,51.5,45.1,36.9,72,58,41,30.08,29.84,20,5,22,0.02
2013-5-14,60.6,50.8,35.7,36.8,30.6,24.5,64,47,34,30.16,30.02,18,5,28,0.00
2013-5-15,62.0,46.6,27.6,38.9,31.7,21.6,80,58,39,30.18,29.99,17,4,17,0.00
2013-5-16,60.9,51.1,42.2,45.5,40.2,34.9,79,67,51,30.02,29.95,15,3,15,0.00
2013-5-17,67.1,49.3,33.4,46.7,39.7,29.3,87,71,46,30.04,29.95,16,3,17,0.31
2013-5-18,58.1,49.4,42.0,50.5,43.9,37.8,87,81,70,30.16,30.03,14,0,14,0.46
2013-5-19,60.0,49.8,40.6,50.1,43.7,36.7,88,80,66,30.29,30.15,11,1,17,0.25
2013-5-20,66.5,53.5,39.9,51.3,44.3,36.3,88,73,49,30.33,30.10,9,1,14,0.00
2013-5-21,73.0,54.3,36.3,49.1,43.3,32.4,88,69,39,30.10,29.78,18,3,20,0.06
2013-5-22,61.8,48.1,34.8,46.3,40.2,30.1,83,75,53,30.10,29.74,15,3,22,0.65
2013-5-23,52.1,42.0,33.6,40.7,34.7,29.2,86,76,61,30.10,30.02,10,2,11,0.23
2013-5-24,60.4,45.6,31.8,41.0,35.0,27.8,88,68,44,30.08,29.93,14,2,15,0.00
2013-5-25,60.4,47.8,31.6,40.8,34.5,26.7,84,62,42,30.09,30.05,14,2,14,0.00
2013-5-26,67.8,50.1,30.0,44.3,37.0,25.4,85,63,39,30.10,29.94,12,3,14,0.00
2013-5-27,63.1,52.6,41.1,49.5,42.8,36.0,85,70,55,29.99,29.88,16,3,16,0.00
2013-5-28,61.5,52.0,46.2,51.4,45.6,40.7,87,79,64,29.90,29.86,14,3,14,0.47
2013-5-29,65.4,53.8,41.0,48.7,43.4,37.0,88,70,47,29.90,29.76,16,2,19,0.02
2013-5-30,61.7,52.2,43.8,44.0,40.6,37.0,86,66,48,30.13,29.91,14,2,14,0.04
2013-5-31,60.2,51.9,0.0,44.7,39.7,-5.0,80,64,53,30.34,30.13,13,2,14,0.02
2013-6-1,66.0,51.8,0.0,48.0,40.5,-4.7,87,68,43,30.35,30.09,14,3,61,0.00
2013-6-2,65.1,52.4,42.6,47.7,42.3,37.4,83,69,52,30.09,29.93,14,2,15,0.00
2013-6-3,61.8,51.1,42.6,50.7,44.2,38.0,86,78,60,30.20,30.00,14,2,14,0.24
2013-6-4,64.2,52.2,36.3,45.1,40.8,32.7,88,68,45,30.28,30.19,14,3,14,0.00
2013-6-5,72.5,56.2,36.1,50.6,43.3,32.1,87,64,42,30.21,30.04,14,2,14,0.00
2013-6-6,80.6,65.2,46.5,57.6,49.3,41.1,84,59,36,30.13,30.01,14,2,15,0.00
2013-6-7,75.2,62.8,48.7,55.4,47.8,42.8,84,61,36,30.03,29.88,19,3,19,0.00
2013-6-8,74.4,61.1,42.4,49.4,44.1,38.0,86,57,33,30.06,29.96,23,3,23,0.00
2013-6-9,71.4,60.3,44.7,47.3,39.1,34.7,78,48,29,30.03,29.92,21,4,21,0.00
2013-6-10,72.3,56.8,36.1,46.1,39.1,29.9,80,54,34,29.99,29.86,19,4,19,0.00
2013-6-11,76.6,58.8,41.9,51.6,44.5,34.9,82,61,39,30.07,29.89,14,2,14,0.00
2013-6-12,65.8,54.2,44.2,48.2,43.1,37.9,85,68,49,30.14,30.05,12,2,14,0.04
2013-6-13,65.8,55.7,45.6,49.2,43.5,37.1,85,65,40,30.11,30.04,14,2,14,0.02
2013-6-14,63.1,51.5,36.3,44.1,38.7,31.3,85,63,46,30.17,30.09,22,3,22,0.00
2013-6-15,72.3,56.4,35.2,48.7,40.8,30.7,86,59,38,30.18,30.06,13,3,15,0.00
2013-6-16,76.6,60.0,37.0,51.8,43.3,32.5,86,57,38,30.18,30.10,17,3,17,0.00
2013-6-17,78.9,63.4,44.4,59.5,49.0,38.9,85,61,41,30.14,29.98,11,2,12,0.04
2013-6-18,80.4,63.6,46.0,58.5,50.7,41.1,85,65,43,29.98,29.80,11,2,14,0.07
2013-6-19,60.0,54.2,49.6,53.4,49.5,45.7,88,84,74,29.89,29.80,6,0,14,0.02
2013-6-20,56.8,51.9,44.7,47.1,43.1,39.5,84,72,64,30.14,29.87,14,4,14,0.39
2013-6-21,63.3,51.6,40.8,50.0,43.2,36.5,87,74,53,30.17,30.12,14,1,22,0.04
2013-6-22,68.7,53.4,36.6,50.6,43.3,33.1,88,71,45,30.17,30.05,14,1,14,0.00
2013-6-23,84.0,59.3,37.9,55.1,45.7,34.0,88,63,37,30.07,29.83,14,2,14,0.00
2013-6-24,67.2,57.4,49.8,56.1,50.5,44.4,85,78,64,29.84,29.78,14,1,14,0.34
2013-6-25,85.8,60.4,50.1,61.8,49.8,45.6,88,70,42,30.00,29.83,14,2,14,0.29
2013-6-26,75.0,60.6,44.7,54.9,48.1,41.1,88,66,42,30.20,30.00,14,1,14,0.02
2013-6-27,94.1,66.5,47.1,60.4,51.1,41.6,85,59,33,30.32,30.20,15,2,15,0.00
2013-6-28,82.0,66.5,49.1,62.1,54.8,45.0,88,68,48,30.37,30.22,14,3,14,0.00
2013-6-29,81.6,68.2,52.1,63.2,56.0,48.3,88,67,41,30.27,30.12,14,2,14,0.00
2013-6-30,84.5,69.1,51.6,62.3,55.7,46.9,87,64,43,30.21,30.14,14,3,14,0.00
2013-7-1,89.2,72.6,54.3,66.7,58.5,50.1,88,64,39,30.26,30.14,10,2,14,0.00
2013-7-2,92.4,73.7,53.9,68.0,59.6,49.2,86,63,36,30.18,30.03,12,2,14,0.00
2013-7-3,85.8,74.7,59.1,62.0,55.3,49.1,80,54,33,30.08,30.01,19,3,22,0.00
2013-7-4,85.2,69.1,49.6,58.5,50.6,43.3,82,55,33,30.06,29.89,14,2,16,0.00
2013-7-5,79.1,66.0,48.3,53.9,47.8,41.4,78,54,36,29.99,29.86,14,2,14,0.00
2013-7-6,77.1,62.1,43.3,53.4,46.6,38.1,83,59,38,30.05,29.94,14,3,14,0.00
2013-7-7,79.3,64.5,46.7,54.9,48.4,40.5,82,58,38,30.04,29.95,17,3,17,0.00
2013-7-8,76.4,60.3,47.8,61.1,49.4,42.3,85,69,42,30.19,29.98,14,2,17,0.45
2013-7-9,77.5,61.9,43.1,55.4,48.5,38.9,86,64,41,30.29,30.15,13,3,14,0.00
2013-7-10,84.3,66.9,45.1,58.7,50.2,40.9,86,58,35,30.16,29.90,14,3,15,0.00
2013-7-11,78.0,67.1,52.1,50.5,45.0,33.9,77,47,30,29.97,29.91,22,3,22,0.00
2013-7-12,78.6,62.2,39.9,47.8,39.3,29.7,68,45,28,30.04,29.95,14,2,15,0.00
2013-7-13,75.0,63.0,50.1,47.1,41.5,37.9,71,47,30,30.20,30.03,13,2,13,0.00
2013-7-14,78.6,61.1,40.8,50.6,42.9,34.4,80,54,31,30.23,30.06,16,4,16,0.00
2013-7-15,82.2,63.5,40.2,49.9,42.2,33.9,79,50,22,30.13,30.02,17,3,20,0.00
2013-7-16,81.6,68.6,52.8,52.4,46.5,37.9,59,46,36,30.23,30.09,16,4,17,0.00
2013-7-17,84.0,70.5,55.2,65.4,52.6,44.8,72,54,35,30.20,30.07,14,2,16,0.08
2013-7-18,85.2,68.4,49.8,58.4,50.0,43.8,82,55,30,30.25,30.15,14,2,14,0.00
2013-7-19,86.1,67.3,46.0,54.0,47.0,39.5,80,52,28,30.21,30.08,14,3,14,0.00
2013-7-20,87.6,68.5,47.4,55.2,46.7,40.4,78,50,24,30.11,29.94,14,3,16,0.00
2013-7-21,87.8,68.4,46.0,52.8,44.2,36.8,72,46,22,29.99,29.91,14,3,14,0.00
2013-7-22,87.6,69.2,47.1,53.5,45.9,38.5,73,47,23,30.07,29.96,19,3,19,0.00
2013-7-23,89.7,69.8,49.1,54.9,47.4,40.4,75,49,22,30.16,30.06,15,4,20,0.00
2013-7-24,89.7,69.8,47.1,54.6,47.2,37.6,72,47,27,30.15,30.05,14,4,14,0.00
2013-7-25,87.6,71.6,53.2,56.9,50.7,43.7,73,50,32,30.21,30.10,14,3,15,0.00
2013-7-26,90.6,70.8,47.1,53.8,45.2,38.5,73,44,19,30.22,30.06,12,3,14,0.00
2013-7-27,84.3,67.4,45.6,47.9,41.3,35.2,68,42,23,30.09,29.98,14,4,23,0.00
2013-7-28,80.2,63.3,41.9,50.0,42.0,33.0,71,48,30,30.02,29.93,15,3,16,0.00
2013-7-29,77.0,66.1,55.2,51.1,45.8,40.1,65,49,37,30.10,30.01,16,4,16,0.00
2013-7-30,81.6,63.5,47.4,52.8,46.4,40.5,78,56,32,30.23,30.10,14,4,15,0.00
2013-7-31,85.2,65.9,43.7,51.8,45.4,37.9,82,52,28,30.28,30.10,20,4,22,0.00
2013-8-1,74.8,63.8,52.7,56.8,51.2,43.5,84,65,42,30.14,30.04,8,2,14,0.08
2013-8-2,61.3,56.8,53.2,54.3,51.9,49.4,88,84,76,30.20,30.02,11,1,12,0.81
2013-8-3,70.1,57.9,47.1,57.4,50.5,43.7,89,77,55,30.23,30.17,9,1,14,0.03
2013-8-4,76.8,61.0,44.7,57.5,50.7,41.4,88,71,46,30.20,30.09,11,2,14,0.00
2013-8-5,78.0,64.0,52.1,59.3,53.0,46.5,82,69,42,30.12,30.03,14,2,14,0.04
2013-8-6,78.6,60.7,45.1,56.3,48.8,41.5,88,68,41,30.16,30.06,14,2,14,0.00
2013-8-7,80.9,64.4,50.5,58.6,51.4,44.9,83,65,41,30.12,30.02,12,2,14,0.00
2013-8-8,82.9,66.3,48.7,58.8,51.1,42.6,87,61,35,30.14,30.06,18,3,18,0.00
2013-8-9,82.5,69.1,52.3,59.5,53.4,46.7,83,59,40,30.17,30.02,14,2,14,0.00
2013-8-10,84.7,69.0,52.1,57.9,51.3,45.6,81,56,31,30.14,30.03,10,2,10,0.00
2013-8-11,82.5,66.9,53.7,61.0,53.5,47.8,82,64,40,30.14,30.06,14,1,14,0.00
2013-8-12,84.3,69.0,54.1,58.2,52.8,48.2,86,59,35,30.16,30.06,14,2,14,0.28
2013-8-13,78.6,66.5,55.7,58.7,53.5,47.3,83,64,47,30.24,30.12,11,2,14,0.02
2013-8-14,82.2,73.0,58.6,57.8,53.2,47.0,79,51,37,30.19,30.07,17,4,17,0.00
2013-8-15,86.5,66.8,47.3,55.9,49.1,41.4,82,57,33,30.10,30.01,13,3,13,0.00
2013-8-16,87.0,67.7,49.1,56.7,49.1,41.2,76,54,32,30.11,30.05,10,2,14,0.00
2013-8-17,84.7,69.8,56.4,55.3,50.4,46.4,76,53,30,30.15,30.04,19,2,21,0.00
2013-8-18,81.3,67.5,52.8,53.4,47.4,42.9,76,51,30,30.15,30.07,19,4,21,0.00
2013-8-19,81.3,65.7,46.2,51.9,46.3,40.1,80,53,31,30.13,30.01,21,3,21,0.00
2013-8-20,79.5,64.3,47.1,50.7,42.8,36.2,79,50,26,30.15,30.06,18,3,20,0.00
2013-8-21,79.5,60.3,39.9,46.6,39.8,31.7,76,50,28,30.23,30.11,13,2,14,0.00
2013-8-22,81.6,62.7,41.1,51.9,43.2,33.1,74,52,30,30.18,29.98,11,2,11,0.00
2013-8-23,81.5,67.1,55.7,57.8,52.1,46.4,77,60,41,30.03,29.90,13,1,22,0.00
2013-8-24,81.1,63.1,45.6,54.6,47.3,39.9,87,60,32,30.04,29.89,17,3,17,0.00
2013-8-25,80.7,65.2,49.1,53.4,47.9,40.5,80,56,36,30.10,29.92,13,2,39,0.00
2013-8-26,77.0,63.2,48.9,54.3,49.9,44.3,87,65,39,30.14,30.02,10,2,20,0.11
2013-8-27,80.6,62.3,45.1,53.3,47.1,39.6,84,61,37,30.12,29.99,14,2,14,0.00
2013-8-28,76.6,60.4,48.3,57.6,49.5,41.7,81,69,47,30.15,30.01,10,2,10,0.02
2013-8-29,82.5,60.5,48.0,59.8,52.1,44.0,88,76,44,30.17,29.99,8,1,11,0.04
2013-8-30,75.9,59.6,46.5,57.2,48.2,43.2,88,69,41,30.22,30.15,20,1,20,0.00
2013-8-31,76.2,58.7,41.1,56.7,44.8,36.9,88,63,35,30.25,29.94,9,2,12,0.00
2013-9-1,85.2,61.2,40.2,55.3,45.1,35.3,97,59,32,30.13,29.95,10,2,14,0.00
2013-9-2,81.3,66.5,51.9,55.6,50.7,44.1,79,59,37,30.09,29.99,10,1,10,0.02
2013-9-3,67.8,59.5,52.3,58.1,52.6,47.1,85,78,65,30.20,30.09,7,1,7,0.02
2013-9-4,82.2,63.2,48.0,59.4,52.1,44.6,88,70,42,30.22,30.11,12,2,12,0.00
2013-9-5,75.7,64.3,54.8,61.9,55.6,48.5,88,74,59,30.20,30.06,12,2,13,0.12
2013-9-6,75.9,63.8,52.3,62.6,54.8,46.0,88,74,50,30.18,30.08,10,1,14,0.18
2013-9-7,75.5,61.7,50.0,55.7,49.5,43.7,83,66,43,30.19,30.08,13,2,13,0.00
2013-9-8,63.5,54.7,47.3,54.6,49.3,42.5,87,82,69,30.14,30.07,14,0,15,0.49
2013-9-9,69.4,58.4,49.1,56.6,51.6,45.6,89,79,61,30.15,30.08,9,1,11,0.08
2013-9-10,75.0,58.8,44.9,57.5,50.1,41.6,89,75,50,30.20,30.12,12,2,12,0.00
2013-9-11,81.3,62.0,44.9,57.2,49.0,41.6,89,67,35,30.30,30.19,10,2,10,0.00
2013-9-12,81.1,61.9,44.9,54.8,47.9,40.1,86,63,36,30.27,30.06,10,2,11,0.00
2013-9-13,80.0,60.2,44.9,57.2,48.8,39.9,87,68,42,30.05,29.93,8,1,8,0.00
2013-9-14,79.3,63.8,50.7,54.1,48.9,44.4,81,61,38,30.14,30.00,10,2,13,0.00
2013-9-15,81.3,61.9,43.5,54.7,47.4,38.0,84,62,36,30.13,29.89,13,3,13,0.00
2013-9-16,75.0,62.4,48.9,57.7,49.7,40.9,84,64,45,29.97,29.87,16,3,16,0.02
2013-9-17,67.8,53.7,40.4,49.8,43.4,36.5,88,70,44,29.98,29.72,8,1,14,0.09
2013-9-18,51.6,48.8,45.6,47.1,44.2,42.0,87,84,81,30.17,29.79,8,0,9,0.98
2013-9-19,58.8,48.1,39.5,47.9,41.7,34.9,89,80,61,30.26,30.14,9,1,9,0.04
2013-9-20,64.9,46.8,32.5,47.5,38.9,29.1,89,76,52,30.15,29.82,11,2,11,0.00
2013-9-21,66.7,49.7,37.2,50.9,42.0,33.0,88,76,47,29.82,29.76,11,1,11,0.01
2013-9-22,61.3,48.7,37.2,46.2,39.5,33.4,88,72,52,29.82,29.76,14,2,16,0.00
2013-9-23,55.5,48.9,42.9,44.2,39.7,36.4,83,71,55,30.04,29.80,16,3,21,0.05
2013-9-24,54.6,46.6,39.3,45.5,40.4,35.2,88,79,64,30.04,29.86,9,1,9,0.04
2013-9-25,51.8,44.8,35.9,44.4,38.6,30.0,88,79,64,29.95,29.85,12,1,14,0.30
2013-9-26,53.4,40.7,30.0,36.9,30.6,24.2,87,70,44,30.11,29.95,14,2,16,0.00
2013-9-27,51.9,38.6,27.1,38.6,30.6,22.7,87,74,53,30.09,30.00,17,1,17,0.00
2013-9-28,56.8,48.3,37.2,43.9,38.6,31.1,83,69,59,30.00,29.73,19,3,19,0.00
2013-9-29,56.4,49.0,44.4,45.3,38.5,35.9,77,67,56,29.80,29.58,26,4,26,0.21
2013-9-30,49.8,44.5,39.5,38.6,35.9,33.3,86,72,58,29.95,29.59,21,4,30,0.26
2013-10-1,52.8,42.4,33.0,37.1,33.5,28.1,85,71,49,30.14,29.94,17,2,20,0.04
2013-10-2,48.9,38.3,28.9,35.9,30.8,24.9,88,75,54,30.21,30.09,10,1,11,0.00
2013-10-3,48.7,39.8,27.1,30.7,27.4,20.8,83,62,45,30.46,30.10,15,4,18,0.00
2013-10-4,50.9,34.0,21.3,34.5,25.4,16.9,87,72,49,30.54,30.43,13,2,14,0.00
2013-10-5,53.7,37.7,25.8,37.0,28.9,20.8,84,72,48,30.46,30.35,10,2,12,0.00
2013-10-6,58.8,40.4,27.8,41.5,31.8,23.9,87,73,48,30.36,30.07,8,1,10,0.00
2013-10-7,60.2,42.6,28.0,38.9,32.2,24.3,88,70,38,30.07,29.88,17,2,21,0.05
2013-10-8,47.8,42.8,32.7,38.8,33.1,27.9,83,69,59,30.09,29.92,15,2,17,0.02
2013-10-9,52.5,36.4,25.1,38.3,29.4,21.2,88,77,56,30.16,29.96,6,1,7,0.00
2013-10-10,46.0,36.6,26.0,39.2,31.4,22.1,88,82,69,29.99,29.91,5,0,6,0.02
2013-10-11,51.2,38.0,27.6,36.3,29.2,23.0,88,72,46,30.14,29.99,10,2,12,0.00
2013-10-12,48.0,35.5,26.4,34.9,28.1,21.4,86,75,57,30.21,30.11,5,1,7,0.00
2013-10-13,49.2,35.2,22.6,35.7,27.8,18.5,88,75,56,30.30,30.21,7,0,9,0.00
2013-10-14,51.4,38.7,26.4,34.5,28.7,20.1,84,69,45,30.44,30.30,8,1,8,0.00
2013-10-15,49.2,32.7,20.3,36.0,25.5,15.8,87,75,58,30.45,30.23,8,2,12,0.00
2013-10-16,46.2,36.8,30.0,37.7,31.1,25.1,86,80,69,30.26,30.17,6,0,6,0.01
2013-10-17,48.9,36.5,27.1,38.3,30.4,22.6,88,79,62,30.31,30.23,8,1,9,0.00
2013-10-18,49.1,36.7,23.5,38.2,30.6,19.6,88,79,64,30.33,30.20,11,2,11,0.00
2013-10-19,49.8,36.4,27.6,39.4,30.9,24.0,88,81,66,30.21,30.10,8,1,8,0.00
2013-10-20,53.2,38.5,27.6,39.8,31.9,24.2,89,78,59,30.22,30.15,10,2,10,0.00
2013-10-21,54.1,38.1,27.1,41.8,32.1,23.4,89,80,62,30.30,30.22,9,2,9,0.00
2013-10-22,54.6,38.1,27.3,43.1,32.4,23.6,89,81,63,30.31,30.21,10,1,10,0.00
2013-10-23,54.6,38.5,27.3,41.5,32.5,23.9,89,80,61,30.29,30.22,8,1,11,0.00
2013-10-24,54.3,37.7,27.3,42.0,32.2,23.9,89,81,62,30.28,30.17,9,1,10,0.00
2013-10-25,51.9,36.2,26.4,41.4,31.0,22.7,89,82,66,30.35,30.22,10,1,10,0.00
2013-10-26,38.8,31.2,25.3,34.7,27.6,21.9,89,86,84,30.39,30.15,11,1,11,0.00
2013-10-27,46.2,35.0,28.2,38.9,26.4,15.9,89,73,46,30.25,29.97,30,6,38,0.00
2013-10-28,34.8,29.4,21.0,20.0,13.8,9.8,65,52,42,30.28,30.12,22,7,22,0.00
2013-10-29,37.5,23.5,12.9,21.2,14.2,7.0,81,68,50,30.12,30.02,12,2,12,0.00
2013-10-30,41.7,27.1,14.1,26.5,19.1,9.9,86,73,53,30.09,30.03,13,1,13,0.00
2013-10-31,45.6,36.0,27.6,34.1,27.5,23.1,84,71,59,30.16,30.04,8,0,8,0.00
2013-11-1,49.6,33.6,23.5,39.3,26.4,20.2,89,76,54,30.26,30.15,11,1,11,0.00
2013-11-2,25.5,25.0,24.9,21.3,20.8,20.5,84,84,83,30.15,30.12,1,0,5,0.00
2013-11-3,39.3,33.9,26.9,27.6,25.5,22.4,85,72,60,30.00,29.84,11,1,11,0.00
2013-11-4,35.7,29.0,23.7,28.0,23.2,19.8,87,79,67,30.15,30.00,8,0,8,0.00
2013-11-5,37.4,30.0,23.1,24.2,21.6,16.7,82,71,53,30.19,30.14,8,0,8,0.00
2013-11-6,40.8,29.5,21.9,32.9,25.0,18.3,87,83,72,30.38,30.16,5,0,6,0.09
2013-11-7,35.7,30.0,21.5,32.2,26.5,17.9,89,86,82,30.36,29.81,8,0,9,0.26
2013-11-8,44.2,36.9,30.0,33.5,30.1,24.9,86,77,64,30.17,29.87,13,2,14,0.00
2013-11-9,41.7,33.3,26.6,31.6,27.4,22.5,87,79,63,30.25,30.17,10,1,12,0.00
2013-11-10,35.9,33.0,31.8,31.8,29.2,27.8,88,86,83,30.30,30.18,0,0,0,0.47
2013-11-11,40.4,35.2,32.1,36.5,31.7,29.0,89,87,83,30.47,30.30,6,0,6,0.12
2013-11-12,42.0,36.5,32.9,36.3,32.7,29.7,89,86,79,30.46,30.33,4,0,5,0.02
2013-11-13,49.6,39.5,32.9,39.5,32.7,30.0,89,78,60,30.33,30.25,14,1,15,0.03
2013-11-14,47.4,38.6,31.6,34.3,30.0,24.1,84,72,57,30.26,29.87,14,1,14,0.00
2013-11-15,40.1,34.5,29.4,27.6,26.4,23.0,82,72,59,29.87,29.45,17,2,17,0.00
2013-11-16,40.2,31.8,22.4,33.2,26.9,17.9,88,82,74,29.66,29.32,7,1,8,0.10
2013-11-17,36.8,31.0,21.3,28.6,23.8,17.2,87,75,58,29.94,29.66,16,1,17,0.00
2013-11-18,42.6,37.2,32.3,32.8,30.0,28.6,87,76,61,29.98,29.78,8,2,15,0.12
2013-11-19,48.3,41.5,33.6,37.3,33.0,28.8,85,72,61,29.78,29.62,20,3,27,0.00
2013-11-20,33.9,25.5,9.5,29.4,12.8,1.4,86,60,37,30.37,29.74,15,1,15,0.00
2013-11-21,24.2,12.8,4.2,11.0,5.1,-1.4,81,72,52,30.60,30.37,9,1,9,0.00
2013-11-22,27.3,15.1,7.5,15.9,8.4,2.3,83,75,57,30.69,30.59,7,1,7,0.00
2013-11-23,27.6,16.1,7.5,17.2,9.6,2.6,84,76,58,30.64,30.35,9,1,9,0.00
2013-11-24,32.1,19.7,12.3,21.5,14.0,7.6,84,79,63,30.37,30.28,6,0,9,0.00
2013-11-25,32.3,20.7,12.5,24.2,15.4,8.0,87,80,65,30.46,30.35,6,0,6,0.00
2013-11-26,33.2,21.5,14.1,24.9,16.9,9.9,87,82,70,30.44,30.22,4,0,14,0.00
2013-11-27,26.6,20.2,14.1,23.5,16.5,9.9,88,86,83,30.26,30.20,0,0,0,0.00
2013-11-28,26.4,21.4,15.8,21.0,17.3,11.7,86,84,79,30.25,30.20,0,0,0,0.00
2013-11-29,28.2,25.0,21.3,24.2,21.2,17.7,87,86,83,30.25,30.21,0,0,0,0.00
2013-11-30,32.7,29.8,26.4,29.1,26.4,23.0,89,87,85,30.26,30.17,5,0,5,13.65
2013-12-1,37.9,34.0,30.0,34.1,30.7,27.2,89,88,85,30.17,29.71,10,1,12,7.84
2013-12-2,37.0,26.6,13.8,31.7,19.9,0.8,89,76,56,30.07,29.61,25,5,25,13.16
2013-12-3,16.1,9.8,2.1,1.7,-1.3,-4.1,77,61,49,30.26,30.08,21,4,21,0.00
2013-12-4,11.8,1.3,-9.5,2.6,-5.0,-15.4,80,75,55,30.29,30.24,7,1,8,0.00
2013-12-5,9.1,-3.1,-10.4,0.5,-9.3,-16.3,78,75,66,30.30,30.22,9,1,9,0.00
2013-12-6,1.7,-4.0,-12.4,-10.5,-14.9,-21.7,72,59,51,30.38,30.30,14,2,18,0.00
2013-12-7,-1.6,-12.7,-18.5,-11.9,-20.4,-25.0,73,68,58,30.32,30.17,7,1,9,0.00
2013-12-8,4.4,-4.0,-18.7,-4.1,-10.8,-24.9,76,72,65,30.35,30.22,3,0,4,0.00
2013-12-9,12.0,6.7,-1.4,4.4,0.2,-7.5,78,74,70,30.37,30.22,4,0,4,0.00
2013-12-10,21.3,14.8,9.6,14.0,9.2,4.1,82,78,72,30.35,30.19,0,0,0,0.00
2013-12-11,29.6,21.4,9.1,22.6,16.5,4.4,86,81,72,30.39,30.28,6,0,6,0.00
2013-12-12,28.9,21.0,13.6,21.9,16.5,9.6,86,83,73,30.30,30.08,3,0,4,0.00
2013-12-13,38.4,28.5,22.8,31.1,24.1,19.2,88,84,72,30.34,30.09,7,1,7,0.04
2013-12-14,38.4,32.4,27.1,32.1,28.3,23.4,88,85,76,30.35,30.23,6,0,7,0.00
2013-12-15,42.6,30.1,25.1,33.0,25.7,21.5,88,84,67,30.25,30.17,10,1,12,0.00
2013-12-16,41.7,35.5,23.5,30.1,26.0,18.6,83,69,58,30.36,30.19,16,3,16,0.00
2013-12-17,38.4,28.5,20.8,28.6,22.4,16.8,86,78,61,30.34,29.94,6,0,7,0.00
2013-12-18,41.5,36.6,20.8,28.9,26.4,15.0,83,67,57,29.96,29.82,17,2,18,0.00
2013-12-19,20.4,12.0,2.4,14.6,3.9,-3.8,78,70,59,30.21,29.96,16,2,18,0.00
2013-12-20,21.9,16.9,10.2,15.7,11.2,4.3,82,78,72,30.06,29.68,2,0,3,0.00
2013-12-21,25.7,19.5,14.7,17.6,14.0,9.6,82,79,70,30.06,29.72,0,0,0,0.00
2013-12-22,28.9,22.1,15.6,21.3,16.9,10.8,84,81,73,30.27,30.05,2,0,3,0.00
2013-12-23,35.9,29.8,23.1,31.6,25.5,19.0,88,84,80,30.25,29.94,10,1,10,0.16
2013-12-24,35.2,30.5,19.0,28.9,23.8,13.3,87,76,68,30.48,30.12,12,2,22,0.00
2013-12-25,25.8,18.6,8.7,21.1,13.7,4.1,84,81,78,30.51,30.34,7,1,7,0.00
2013-12-26,32.3,26.5,19.2,25.7,21.3,15.0,85,81,75,30.40,30.25,12,0,12,0.00
2013-12-27,35.4,24.1,14.5,30.2,19.6,10.7,87,83,74,30.29,29.99,15,1,15,0.02
2013-12-28,35.2,30.1,22.1,27.7,23.0,16.6,81,75,67,30.36,30.04,8,0,12,0.00
2013-12-29,33.6,29.2,25.1,24.6,22.3,19.1,80,75,67,30.35,30.16,9,0,11,0.00
2013-12-30,34.1,27.5,18.8,29.7,22.6,14.6,87,82,75,30.24,30.02,8,1,8,0.00
2013-12-31,39.7,34.7,26.0,31.7,28.1,20.7,87,77,68,30.24,30.01,11,1,13,0.02
2014-1-1,34.3,25.4,17.7,25.8,19.9,13.3,86,80,70,30.38,30.23,7,0,12,0.00
2014-1-2,34.3,29.7,22.4,29.6,25.1,18.3,86,83,77,30.34,29.77,0,0,0,0.00